Vorticity
5 5 6 6 8 7 4 3 2 2 2 3 5 3 5 5 4 4 6 9 6 8 7 7 7 9 9 5 2 1 2 1 2 2 3 3 4 4 5 5 5 6 8
4 4 6 6 6 4 5 2 2 1 3 9 4 4 4 4 3 5 7 9 11 7 6 7 7 7 6 3 2 2 2 2 3 4 4 3 4 5 5 6 8 9 10
5 5 7 4 4 4 4 2 2 1 7 7 3 4 4 2 1 4 4 2 7 7 6 6 6 7 5 2 2 2 5 2 6 4 4 5 5 7 6 9 9 11 11
5 6 5 5 3 3 3 2 2 0 8 4 4 4 4 3 3 3 5 5 4 5 6 6 7 6 5 5 5 5 5 4 5 5 5 5 5 6 9 9 12 13 13
1 5 4 6 3 2 4 2 1 1 3 5 4 4 4 3 5 4 4 6 5 7 7 6 5 5 5 5 3 6 5 5 4 4 5 3 6 7 8 10 11 11 14
1 2 6 6 4 1 1 5 2 0 0 7 4 4 3 4 4 6 5 8 6 4 4 4 5 5 5 5 6 4 7 5 5 3 5 5 8 8 8 9 10 18 17
2 2 2 7 4 2 3 5 5 1 2 3 4 5 4 4 5 4 4 5 7 6 7 4 3 4 4 5 6 7 7 7 6 5 5 5 8 9 8 12 17 5 5
-2 1 2 6 5 4 3 3 5 3 1 2 5 3 4 3 3 3 3 4 6 6 4 3 4 3 4 5 6 6 5 7 6 8 4 6 9 5 8 10 7 4 -0
3 1 -0 3 5 5 5 4 3 3 2 3 3 3 3 3 3 3 4 4 6 6 4 5 3 4 3 5 6 6 4 7 5 6 6 6 10 3 6 4 1 -1 2
3 3 3 -1 2 5 5 4 3 3 3 3 2 3 3 3 3 4 3 4 5 5 5 5 2 4 3 4 5 7 7 8 6 8 7 6 10 3 8 1 5 1 0
4 2 4 3 1 3 5 5 4 4 3 4 3 2 4 4 4 5 3 4 5 5 5 4 3 4 6 5 5 5 8 8 7 6 8 9 11 10 4 3 1 2 2
8 3 2 4 3 2 4 4 4 5 4 4 4 2 3 3 4 4 4 4 5 5 5 4 3 8 7 6 4 6 7 9 8 7 8 8 10 14 6 4 1 2 1
9 6 0 4 2 3 3 3 3 4 6 5 4 3 3 3 4 4 4 5 6 5 2 1 4 7 2 -3 1 4 10 8 7 8 7 8 9 13 12 7 4 3 2
8 9 4 1 3 3 4 3 2 4 5 6 5 4 3 3 3 4 4 4 6 2 5 1 6 7 1 4 1 10 9 7 8 7 7 6 8 10 12 11 8 8 7
7 9 7 3 1 2 4 3 2 4 4 5 6 5 4 4 4 4 5 5 5 4 4 7 6 8 -3 -1 3 13 6 7 8 8 8 7 7 8 10 10 10 7 6
6 6 8 4 3 1 3 3 2 2 3 4 6 6 5 5 5 5 5 5 7 6 6 -0 8 -0 -9 18 9 6 7 6 7 7 9 7 6 7 9 10 8 7 7
10 6 8 6 3 3 2 2 2 2 3 4 6 6 5 5 5 5 5 6 7 -0 -2 10 5 -1 -4 14 4 7 6 5 4 7 9 9 6 5 6 8 9 11 10
10 8 6 8 3 6 3 2 2 2 3 5 6 6 5 5 4 5 5 6 8 -0 8 2 4 2 -9 14 4 6 5 6 6 6 7 9 8 6 6 6 8 10 10
15 10 8 5 5 7 5 3 2 3 3 4 5 6 5 5 5 5 4 5 7 4 2 8 8 -0 -9 5 9 12 5 6 6 4 6 6 8 8 7 7 6 7 9
15 11 8 8 4 6 7 4 2 4 3 4 5 6 6 5 5 5 5 6 5 5 6 8 0 -0 6 15 14 8 6 3 5 5 4 5 7 8 7 6 7 6 7
12 10 -15 10 4 10 7 6 4 3 3 4 6 6 6 5 6 6 5 4 4 2 6 4 0 1 -1 11 11 10 8 5 4 3 5 6 6 8 7 7 7 6 7
16 13 7 3 3 8 7 4 2 1 3 4 6 7 6 5 6 5 5 6 5 6 0 3 6 6 1 7 -1 9 9 5 5 1 3 5 6 6 7 8 7 8 8
12 15 6 5 6 8 8 6 4 4 4 4 6 7 6 5 6 5 1 -2 -1 -2 8 8 5 -6 8 8 5 11 8 7 8 -0 3 3 4 5 7 8 7 9 9
12 9 -6 14 5 8 10 8 3 1 3 5 7 8 6 5 6 8 9 0 15 3 -4 8 7 -6 3 6 5 12 11 9 7 -1 2 4 4 5 7 8 7 9 9
7 6 -7 12 8 2 10 9 5 3 6 3 4 7 5 7 3 5 2 9 3 -1 8 7 11 3 3 4 4 9 10 7 10 3 -0 -0 4 5 8 8 8 9 8
15 -1 13 11 11 -3 20 8 3 -0 4 7 8 6 6 6 6 5 2 7 -2 3 2 4 4 10 6 1 5 8 8 8 1 8 4 4 6 7 8 7 8 8 7
Height
5883 5883 5883 5883 5883 5882 5883 5884 5885 5885 5885 5886 5885 5886 5885 5885 5885 5884 5884 5883 5882 5881 5881 5880 5880 5879 5879 5878 5877 5876 5876 5875 5874 5873 5871 5870 5868 5866 5864 5861 5859 5856 5854
5882 5882 5882 5881 5882 5882 5882 5883 5884 5885 5885 5885 5885 5885 5885 5885 5885 5884 5883 5882 5881 5881 5880 5880 5879 5879 5878 5878 5877 5877 5876 5875 5873 5872 5870 5868 5866 5863 5861 5858 5855 5852 5848
5880 5880 5880 5880 5881 5881 5881 5882 5883 5883 5884 5884 5884 5884 5884 5884 5884 5883 5882 5881 5880 5880 5880 5879 5879 5878 5878 5877 5877 5876 5875 5873 5871 5870 5868 5866 5863 5860 5856 5853 5850 5846 5843
5877 5877 5878 5878 5878 5879 5880 5880 5881 5882 5882 5882 5883 5883 5883 5883 5882 5882 5881 5881 5880 5879 5879 5879 5878 5878 5877 5877 5876 5875 5873 5871 5870 5868 5865 5862 5859 5856 5852 5849 5845 5841 5838
5874 5874 5874 5875 5876 5877 5877 5878 5879 5880 5880 5881 5881 5882 5882 5881 5881 5881 5880 5880 5879 5878 5878 5878 5877 5876 5876 5875 5874 5873 5871 5869 5866 5864 5861 5858 5855 5852 5848 5845 5841 5838 5834
5869 5870 5871 5872 5873 5874 5875 5876 5877 5878 5878 5879 5880 5880 5880 5880 5880 5880 5879 5879 5878 5877 5877 5876 5875 5874 5874 5872 5871 5870 5868 5866 5863 5861 5858 5855 5852 5849 5845 5842 5839 5836 5832
5864 5866 5868 5869 5869 5871 5872 5873 5874 5875 5876 5877 5877 5878 5878 5878 5878 5878 5878 5877 5876 5876 5875 5874 5873 5872 5871 5870 5869 5867 5865 5863 5861 5858 5855 5852 5849 5845 5842 5840 5837 5835 5832
5858 5860 5863 5864 5865 5866 5868 5870 5870 5872 5873 5874 5875 5875 5876 5876 5876 5876 5876 5875 5874 5873 5873 5872 5871 5870 5869 5868 5866 5865 5863 5861 5858 5855 5852 5849 5846 5843 5841 5838 5836 5835 5832
5850 5854 5857 5859 5861 5862 5864 5866 5867 5868 5870 5871 5872 5873 5874 5874 5874 5874 5874 5873 5872 5872 5871 5870 5869 5868 5867 5865 5864 5862 5860 5857 5855 5853 5850 5846 5843 5841 5839 5837 5835 5834 5832
5842 5846 5849 5853 5855 5857 5859 5861 5862 5864 5865 5867 5868 5870 5871 5871 5872 5872 5871 5871 5870 5869 5869 5868 5867 5866 5865 5863 5861 5859 5857 5855 5852 5850 5847 5844 5840 5839 5837 5835 5834 5832 5830
5832 5837 5841 5845 5848 5851 5853 5855 5857 5859 5861 5863 5864 5865 5867 5868 5869 5869 5868 5868 5867 5867 5866 5866 5865 5864 5862 5861 5859 5857 5854 5852 5849 5847 5844 5841 5837 5835 5834 5833 5831 5829 5827
5822 5828 5832 5836 5841 5844 5846 5848 5851 5854 5856 5858 5860 5861 5863 5864 5865 5866 5865 5865 5864 5864 5864 5863 5862 5861 5859 5857 5856 5853 5851 5848 5846 5843 5840 5837 5835 5832 5830 5829 5827 5826 5824
5810 5815 5821 5827 5832 5836 5840 5842 5845 5848 5851 5853 5855 5857 5858 5859 5861 5862 5862 5861 5861 5861 5860 5860 5859 5858 5856 5854 5852 5849 5847 5844 5842 5839 5837 5834 5831 5829 5827 5824 5823 5821 5820
5798 5805 5810 5817 5824 5828 5832 5835 5838 5841 5845 5847 5850 5852 5854 5855 5856 5857 5857 5858 5857 5857 5857 5856 5855 5854 5852 5850 5848 5846 5843 5841 5838 5835 5833 5830 5827 5825 5822 5820 5818 5817 5815
5785 5792 5799 5806 5814 5819 5824 5828 5831 5835 5838 5841 5844 5847 5849 5850 5851 5853 5853 5853 5853 5853 5853 5853 5852 5851 5849 5846 5844 5842 5840 5837 5834 5831 5829 5826 5823 5820 5818 5816 5814 5812 5810
5771 5780 5788 5795 5803 5810 5815 5820 5824 5828 5832 5835 5838 5841 5843 5845 5846 5848 5849 5849 5850 5849 5849 5848 5848 5847 5844 5842 5840 5837 5835 5832 5830 5827 5824 5822 5819 5816 5813 5811 5808 5806 5805
5757 5767 5777 5784 5793 5799 5806 5812 5817 5821 5824 5828 5831 5835 5837 5839 5841 5842 5844 5844 5845 5845 5845 5844 5843 5842 5840 5838 5836 5833 5830 5827 5825 5823 5820 5817 5814 5811 5809 5806 5803 5800 5798
5742 5754 5764 5772 5782 5789 5797 5803 5809 5813 5817 5821 5824 5828 5831 5834 5835 5837 5839 5840 5840 5841 5840 5840 5838 5837 5835 5833 5830 5828 5825 5823 5820 5818 5816 5813 5809 5807 5804 5801 5798 5795 5792
5729 5741 5751 5761 5770 5779 5787 5794 5800 5805 5810 5814 5817 5821 5825 5827 5830 5831 5833 5835 5835 5836 5836 5834 5833 5832 5830 5828 5825 5823 5820 5818 5815 5813 5810 5808 5804 5802 5798 5795 5792 5789 5786
5714 5728 5740 5749 5759 5768 5777 5785 5792 5797 5802 5806 5810 5814 5818 5821 5824 5826 5828 5829 5830 5830 5830 5829 5828 5827 5825 5823 5820 5818 5815 5813 5810 5807 5804 5802 5799 5796 5792 5789 5785 5782 5779
5701 5715 5728 5738 5749 5759 5769 5777 5783 5789 5794 5799 5803 5808 5812 5815 5818 5821 5822 5824 5825 5825 5825 5823 5823 5821 5819 5818 5815 5812 5810 5807 5804 5801 5798 5795 5792 5789 5786 5782 5778 5774 5771
5689 5705 5717 5728 5739 5750 5759 5767 5774 5781 5787 5792 5797 5802 5805 5809 5812 5815 5816 5818 5819 5820 5819 5818 5817 5816 5814 5812 5809 5807 5804 5801 5798 5795 5792 5788 5785 5782 5778 5774 5771 5767 5763
5680 5695 5709 5720 5731 5741 5750 5759 5768 5775 5780 5785 5790 5795 5799 5802 5805 5808 5810 5812 5813 5814 5813 5812 5811 5809 5807 5805 5803 5800 5797 5794 5791 5788 5784 5781 5777 5773 5770 5766 5762 5758 5754
5673 5685 5703 5710 5721 5731 5742 5751 5759 5766 5773 5778 5784 5789 5793 5796 5799 5802 5803 5805 5807 5807 5806 5805 5804 5802 5801 5798 5796 5793 5790 5787 5784 5781 5776 5773 5768 5765 5760 5756 5752 5749 5745
5664 5677 5694 5702 5713 5724 5735 5744 5752 5760 5766 5771 5777 5783 5787 5789 5792 5795 5797 5799 5800 5800 5800 5799 5797 5795 5794 5791 5789 5785 5782 5779 5776 5773 5769 5764 5759 5755 5751 5747 5743 5739 5736
5655 5669 5683 5694 5705 5716 5725 5736 5745 5752 5760 5765 5770 5776 5780 5783 5786 5788 5790 5792 5792 5793 5792 5792 5790 5788 5786 5783 5780 5776 5774 5770 5767 5764 5761 5757 5752 5745 5739 5734 5731 5727 5724